Regional Weather Roundup
Issued by NWS

Home | Current Version | Previous Version | Text Only | Print | Product List | Glossary On
Versions: 1 2 3 4 5 6 7 8 9 10 11 12 13 14 15 16 17 18 19 20 21 22 23 24 25 26 27 28 29 30 31 32 33 34 35 36 37 38 39 40 41 42 43 44 45 46 47 48 49 50
000
ASUS44 KFWD 051901
RWRTX
NORTH TEXAS HOURLY WEATHER ROUNDUP
NATIONAL WEATHER SERVICE FORT WORTH TX
100 PM CST MON DEC 05 2016

NOTE: "FAIR" INDICATES FEW OR NO CLOUDS BELOW 12,000 FEET WITH NO
SIGNIFICANT WEATHER AND/OR OBSTRUCTIONS TO VISIBILITY.

TXZ118-119-052000-
DALLAS/FORT WORTH METROPLEX

CITY           SKY/WX    TMP DP  RH WIND       PRES   REMARKS
DFW AIRPORT    CLOUDY    53  43  68 CALM      29.80F
DALLAS LOVE    CLOUDY    53  45  74 E3        29.81F
FTW MEACHAM    CLOUDY    52  43  71 W3        29.81F
DAL-EXECUTIVE  CLOUDY    51  45  79 CALM      29.79F
FTW-ALLIANCE   CLOUDY    51  43  74 S5        29.80F
FTW-NAS-JRB    LGT RAIN  51  44  77 SW5       29.81F
FTW-SPINKS     CLOUDY    52  45  76 CALM      29.82F
ARLINGTON      CLOUDY    52  44  74 CALM      29.81F
GRAND PRAIRIE  CLOUDY    52  43  71 CALM      29.83F
ADDISON          N/A     50  48  93 NE6       29.81F
MESQUITE       CLOUDY   N/A N/A N/A CALM      29.81F
LANCASTER      CLOUDY    52  44  75 CALM      29.82F
$$

TXZ091>094-102>105-117-120-121-131>134-052000-
NORTH CENTRAL TEXAS

CITY           SKY/WX    TMP DP  RH WIND       PRES   REMARKS
SHRMAN/DENISON NOT AVBL
GAINESVILLE    CLOUDY    48  43  82 S5        29.82F
BOWIE          CLOUDY    49  44  84 S7        29.80F
BRIDGEPORT     CLOUDY    49  44  81 SW5       29.83F
DECATUR        CLOUDY    47  44  88 S5        29.80F
DENTON         CLOUDY    50  45  83 SW3       29.81F
MCKINNEY       CLOUDY    51  44  77 VRB5      29.80F
BONHAM         CLOUDY    48  41  76 E6        29.81F
ROCKWALL       CLOUDY    50  44  78 E3        29.80F
TERRELL        CLOUDY    50  43  77 NE7       29.80F
WAXAHACHIE     CLOUDY    49  45  85 CALM      29.82F
CLEBURNE       LGT RAIN  50  48  93 NW3       29.82F
GRANBURY       RAIN      50  45  81 CALM      29.82F
$$

TXZ083>090-098>101-113>116-127>130-139>142-154-155-052000-
WESTERN NORTH TEXAS

CITY           SKY/WX    TMP DP  RH WIND       PRES   REMARKS
WICHITA FALLS  PTSUNNY   50  42  74 S12       29.79F
WF-KICKAPOO    PTSUNNY   48  42  79 S6        29.81F
VERNON         SUNNY     55  38  53 S16G24    29.77F
ABILENE        LGT RAIN  45  44  97 S9        29.79F
CISCO          MOSUNNY   48  43  81 SW7       29.80F
MINERAL WELLS  CLOUDY    50  42  74 S5        29.79F
STEPHENVILLE   CLOUDY    49  43  77 SW6       29.82F
COMANCHE       LGT RAIN  48  45  91 W3        29.80F
COLEMAN        CLOUDY    50  45  83 SW7       29.80F
$$

TXZ143>147-156>162-174-175-052000-
CENTRAL TEXAS

CITY           SKY/WX    TMP DP  RH WIND       PRES   REMARKS
WACO           LGT RAIN  49  48  97 W8        29.84S FOG
WACO-MCGREGOR  HVY RAIN  48  47  96 N8        29.79F FOG
HILLSBORO      RAIN      49  48  96 NW6       29.80F
CORSICANA      LGT RAIN  50  48  93 N8        29.79F FOG
MEXIA          CLOUDY    48  47  96 CALM      29.80F
HEARNE         CLOUDY    49  49  99 NW7       29.79F FOG
CAMERON        CLOUDY    50  49  97 N10       29.79F
TEMPLE         LGT RAIN  48  47  96 NW8       29.80F
KILLEEN        CLOUDY    48  47  97 NW9       29.78F
KILLEEN-SKYLRK CLOUDY    48  47  96 NW7       29.81F
FORT HOOD      CLOUDY    46  46 100 NW9       29.78F
HAMILTON       CLOUDY    49  48  98 W7        29.81F
$$

TXZ095>097-106>112-122>126-135>138-148>153-164>167-052000-
EAST TEXAS

CITY           SKY/WX    TMP DP  RH WIND       PRES   REMARKS
PARIS          CLOUDY    48  39  71 E8        29.82F
GILMER         CLOUDY    48  44  87 N7        29.80F
MINEOLA        RAIN      48  46  93 NE3       29.79F
TYLER          FOG       49  47  93 E10       29.76F VSB 1
LONGVIEW       NOT AVBL
MARSHALL       CLOUDY    45  43  92 N3        29.83F
ATHENS         CLOUDY    46  46 100 N3        29.78F
PALESTINE      CLOUDY    49  49  99 N7        29.77F
JACKSONVILLE   CLOUDY    47  47 100 NE10      29.77F FOG
CENTER         CLOUDY    49  47  95 N5        29.80F FOG
NACOGDOCHES    CLOUDY    48  45  87 NE5       29.77F
LUFKIN         CLOUDY    49  48  97 N6        29.75F FOG
$$

SUPPLEMENTAL OBSERVATIONS (CENTRAL)

CITY           SKY/WX    TMP DP  RH WIND       PRES   REMARKS
$$

SUPPLEMENTAL OBSERVATIONS (WEST)

CITY           SKY/WX    TMP DP  RH WIND       PRES   REMARKS
$$

SUPPLEMENTAL OBSERVATIONS (EAST)

CITY           SKY/WX    TMP DP  RH WIND       PRES   REMARKS
$$

SUPPLEMENTAL OBSERVATIONS ARE A COLLECTION OF AUTOMATED INSTRUMENTS
THAT ARE MAINTAINED BY A VARIETY OF FEDERAL AND STATE AGENCIES.
CERTAIN ELEMENTS...SUCH AS HUMIDITY VALUES AND SUSTAINED WIND
SPEEDS...MAY BE APPROXIMATED.





USA.gov is the U.S. government's official web portal to all federal, state and local government web resources and services.